Wind_Speed
25 27 30 33 33 31 28 25 23 22 23 25 25 25 25 25 25 25 25 26 27 29 30 29 26 25 24 25 25 26 26 26 26 25 24 23 22 21 20 19 17 16 15 13 13 11 10 9 8 7 6 5 4 4 4 6 8 10 11 12 13 13 15
26 29 32 35 34 32 28 26 25 23 23 25 26 27 27 26 26 25 25 26 28 31 31 30 28 25 25 25 26 26 26 26 27 26 25 24 23 22 21 19 18 17 16 15 14 13 12 11 10 9 8 7 6 6 6 7 9 10 12 13 14 15 16
28 30 34 37 36 32 29 28 27 25 25 25 26 26 27 27 26 25 25 26 29 32 33 32 30 27 26 26 27 27 27 27 27 26 25 24 24 23 22 20 19 18 18 17 16 15 14 12 12 12 10 9 8 8 8 9 10 11 13 14 15 16 17
31 32 35 38 38 34 32 31 29 27 27 26 24 24 26 28 27 27 27 28 31 34 35 35 33 31 30 29 28 28 28 27 27 27 26 26 25 24 22 21 20 20 19 19 18 16 15 14 14 13 12 11 10 10 11 11 12 12 13 15 16 17 19
34 34 36 39 40 37 35 33 30 28 27 27 25 24 25 28 29 30 30 30 31 34 36 36 35 34 33 32 30 29 29 28 28 28 27 26 25 24 23 22 22 21 21 20 18 17 16 15 15 14 13 12 12 13 13 14 14 14 15 16 17 18 20
36 36 37 40 42 40 37 35 32 29 27 27 27 26 26 28 30 32 32 31 31 33 36 37 37 36 35 34 33 31 30 29 29 28 27 26 26 25 25 24 24 23 22 21 19 18 17 17 16 15 15 14 14 15 16 16 16 16 17 18 18 19 21
40 39 39 41 42 42 40 37 34 31 28 28 29 29 29 30 32 33 34 33 32 33 36 38 37 36 35 35 34 32 31 30 30 28 27 27 27 27 27 26 26 25 23 21 19 18 18 18 17 16 16 17 17 17 17 18 18 18 18 19 20 20 21
43 41 41 41 42 43 42 39 36 34 31 30 31 31 30 32 35 36 36 35 34 34 35 36 37 36 35 35 34 33 31 30 30 29 28 27 28 28 28 27 27 25 23 21 20 20 19 19 18 18 18 18 19 19 19 19 19 19 20 21 21 22 22
45 43 42 42 42 43 43 41 39 36 34 31 30 29 30 32 36 38 38 37 36 35 35 35 36 36 36 36 35 34 32 31 30 30 29 29 29 29 29 29 28 26 24 22 21 21 20 20 20 20 20 20 21 21 21 21 21 21 22 22 23 23 23
45 43 42 43 43 44 44 43 41 39 37 33 30 29 30 32 35 37 39 38 38 37 36 35 35 37 38 38 37 35 34 33 32 32 31 31 31 31 30 30 29 27 25 24 23 22 22 21 22 22 22 22 22 22 22 23 23 23 23 23 24 24 24
46 43 41 42 45 46 46 45 44 43 40 36 32 30 31 32 33 36 38 39 39 39 38 37 37 38 40 40 39 38 36 35 35 34 33 33 32 32 32 31 30 28 26 25 25 24 24 24 24 24 25 24 24 23 23 23 24 24 24 25 25 25 25
45 44 41 41 45 48 49 48 46 44 42 38 34 32 32 33 33 34 36 38 40 40 40 40 39 39 40 42 42 41 39 38 37 36 35 34 34 34 33 32 31 29 28 27 27 27 26 26 26 26 26 26 26 26 25 25 25 25 26 26 26 26 26
45 45 42 42 44 48 51 50 48 45 43 40 36 34 34 35 35 34 34 36 39 41 42 42 41 40 41 42 43 43 41 40 38 37 36 36 36 36 35 34 33 31 31 30 29 29 29 29 29 28 28 28 28 28 27 27 26 27 27 27 28 28 28
45 45 43 42 43 46 49 50 48 46 44 41 39 36 36 36 36 34 33 35 38 41 42 43 43 42 41 42 43 43 43 41 40 39 38 38 38 38 37 36 34 34 33 32 31 31 31 31 31 30 29 29 29 29 29 29 29 28 29 29 29 29 29
44 44 43 41 42 46 49 50 49 47 45 43 41 39 37 36 36 35 33 33 36 39 41 43 43 43 43 43 43 43 42 42 42 41 40 40 40 39 38 37 36 36 35 34 33 33 33 33 32 31 30 29 29 29 30 30 31 31 31 31 30 30 31
44 44 43 41 41 45 49 51 51 49 47 45 43 41 38 36 35 35 33 33 34 37 40 42 43 43 44 44 43 42 42 42 42 43 42 42 42 41 40 39 38 37 36 36 35 35 34 33 32 31 30 30 30 31 31 31 32 32 32 32 31 32 32
44 45 43 40 41 44 47 49 51 50 49 47 45 43 40 37 35 34 34 33 34 35 37 40 42 43 44 44 43 42 42 42 42 43 44 44 43 42 42 41 39 38 37 37 36 36 35 33 32 30 30 30 31 32 32 32 32 33 33 33 33 33 33
42 44 43 41 41 44 46 48 50 51 51 49 47 45 42 38 36 34 34 34 34 33 35 37 40 41 42 42 42 42 43 42 42 43 44 45 45 44 43 42 40 39 38 36 36 35 35 33 31 30 31 32 33 33 33 33 33 33 33 33 33 34 35
40 41 42 41 41 43 46 48 51 52 52 50 48 47 44 40 38 37 36 35 34 33 33 35 37 39 40 40 41 42 42 42 42 42 43 44 44 44 43 43 41 39 37 36 35 35 35 33 32 32 32 33 34 34 33 33 33 32 33 33 34 35 36
39 38 40 41 41 41 44 48 51 51 51 51 50 48 45 42 40 39 37 35 35 34 34 33 34 36 37 39 40 40 41 41 41 41 42 42 42 43 43 42 41 38 37 36 35 35 35 34 34 34 33 34 34 34 33 33 33 33 33 34 35 36 37
40 38 37 38 39 40 41 44 49 52 53 53 51 49 47 45 43 41 39 37 36 35 33 32 32 33 34 36 37 38 39 40 40 41 41 41 41 41 42 41 40 38 37 36 36 35 35 35 36 35 35 34 34 34 34 33 33 33 33 34 36 37 39
40 40 38 37 37 39 40 42 46 50 53 54 53 51 50 48 45 42 41 39 36 34 33 32 32 32 32 33 34 35 36 37 39 39 40 41 41 41 41 41 39 38 37 37 36 36 36 36 36 36 36 36 35 34 34 34 33 33 34 35 36 38 41
40 40 40 38 36 37 39 40 42 46 50 52 53 53 52 50 47 44 42 39 36 34 33 33 33 33 32 31 31 32 34 35 36 38 39 40 41 42 41 41 40 39 39 38 38 37 37 37 37 37 37 37 35 34 34 34 34 34 34 35 38 40 43
39 40 40 38 36 35 36 38 40 42 46 50 52 53 53 51 49 46 44 42 39 36 34 34 34 33 32 32 31 31 31 33 34 36 38 40 41 42 41 41 41 41 40 40 39 38 38 38 38 38 38 36 35 34 34 34 34 35 36 38 40 43 44
38 39 39 38 37 35 34 36 38 39 42 46 50 52 52 52 51 49 47 44 42 40 38 36 33 32 31 31 31 31 31 32 33 35 37 39 40 41 41 41 41 41 41 40 40 39 39 39 39 38 37 36 35 35 35 35 36 37 39 40 42 44 44
38 37 38 38 38 37 35 35 37 38 40 43 47 51 52 52 52 51 49 47 44 43 42 40 36 33 31 30 31 32 32 33 34 35 36 38 39 39 40 40 40 40 41 41 41 40 40 39 38 37 37 36 36 36 36 36 38 40 42 43 43 42 40
38 38 38 39 39 38 36 35 35 37 38 41 44 49 52 53 53 52 51 50 48 47 46 44 41 38 35 34 33 33 33 34 35 36 37 38 39 39 40 40 40 41 41 41 41 40 39 39 38 38 37 37 37 37 38 39 41 43 43 43 41 38 34
39 39 39 39 39 38 37 36 35 35 35 37 40 44 48 52 54 54 54 52 52 51 49 46 43 41 40 38 37 37 36 36 36 37 38 38 39 39 40 40 40 40 40 40 40 39 39 39 39 38 38 38 39 40 41 42 43 43 42 39 36 32 30
40 40 39 38 38 38 38 37 36 35 34 34 36 39 43 47 51 54 54 54 54 52 50 47 46 44 43 42 42 41 40 39 39 39 39 39 39 40 40 40 40 40 40 40 40 40 40 40 40 40 40 41 41 42 43 43 42 40 38 34 31 28 27
43 42 41 39 39 39 38 38 37 36 34 33 33 35 38 42 46 50 53 54 53 52 50 49 48 47 46 45 45 44 43 42 41 41 41 41 42 42 42 42 42 42 42 42 42 42 41 41 42 42 42 43 43 43 42 41 38 35 33 30 28 28 28
47 46 45 44 42 41 40 39 37 36 34 34 33 33 34 37 41 45 49 51 52 51 51 50 49 48 47 47 46 46 45 44 44 43 43 43 43 43 43 43 43 44 44 43 43 43 43 43 44 44 44 43 42 41 39 37 35 32 30 29 28 28 29
51 50 48 47 46 43 42 40 37 35 35 34 34 34 34 34 36 39 43 46 49 50 51 51 50 50 49 48 48 47 47 46 46 46 46 46 46 45 45 45 45 46 46 46 45 45 45 45 45 44 43 41 38 36 35 34 32 31 29 29 29 30 31
56 53 51 49 47 45 43 41 38 37 36 35 34 34 33 33 33 35 37 40 43 45 48 50 50 51 50 50 50 49 49 48 48 48 48 48 48 48 48 48 48 48 48 47 47 47 46 45 44 42 39 36 33 32 32 32 31 30 30 31 31 32 33
61 57 53 50 47 45 44 43 41 39 37 36 35 34 34 33 33 33 34 35 37 39 42 45 47 48 50 50 50 50 49 49 49 48 48 49 49 49 49 48 49 49 48 48 47 46 45 42 40 37 34 32 32 32 32 31 31 31 32 33 34 35 36
63 57 52 50 48 47 46 45 44 42 40 38 37 36 36 35 34 33 33 33 34 35 36 38 40 43 45 46 47 47 47 47 47 47 47 47 48 48 48 47 48 48 47 46 45 43 40 38 36 34 32 32 32 32 31 31 32 33 34 35 36 37 38
63 57 53 51 50 49 48 46 46 44 43 41 40 39 38 38 37 36 34 34 33 33 33 34 35 36 38 40 41 42 42 43 43 44 44 45 45 45 44 44 44 44 43 41 39 37 36 34 33 32 32 32 32 32 32 33 34 35 36 38 39 40 41
65 60 56 53 52 50 49 47 47 47 46 44 42 41 41 41 40 39 37 36 34 34 33 33 33 34 35 35 36 36 37 38 39 40 40 41 41 41 40 40 39 39 38 36 35 34 34 33 33 33 33 33 33 33 34 35 36 38 39 40 41 42 43
67 63 59 56 54 52 51 49 48 48 48 47 45 44 44 44 42 41 40 39 37 36 35 35 35 34 34 34 34 35 35 36 37 37 38 38 38 38 37 37 37 37 36 35 35 34 35 35 35 35 36 36 36 36 37 38 39 40 41 43 44 45 45
Wind_Direction
248 239 229 229 227 223 222 223 224 223 221 217 213 210 207 206 209 214 217 216 213 212 213 211 207 204 205 205 206 206 206 207 208 208 207 207 207 208 209 209 209 210 209 209 213 214 214 216 221 226 230 230 234 248 275 301 314 321 326 330 334 338 341
242 235 227 228 227 221 218 221 223 221 220 218 216 214 210 207 208 211 215 215 212 212 214 214 209 205 208 209 210 210 209 209 211 212 211 211 212 212 213 213 212 213 213 213 216 217 217 219 226 232 235 235 239 251 269 286 299 308 314 318 323 328 332
235 233 226 225 225 219 215 218 219 218 216 216 216 216 214 211 209 211 214 215 212 211 213 214 209 205 207 210 213 213 212 212 214 214 213 214 215 216 216 216 216 216 216 217 219 220 219 220 226 233 237 239 244 254 267 277 288 297 304 310 316 320 324
229 229 225 224 224 218 214 216 217 216 216 214 213 213 213 212 211 212 214 215 212 211 213 214 211 205 205 208 212 214 215 215 217 216 215 216 217 218 218 218 219 219 219 220 222 223 223 223 227 233 238 245 252 259 266 275 282 290 298 304 310 315 319
229 225 223 223 223 218 214 214 214 215 216 215 212 209 210 210 210 210 212 214 214 213 214 216 214 209 206 207 210 214 215 217 218 219 217 217 218 219 220 221 221 222 222 223 224 225 226 228 232 236 241 249 257 263 269 275 282 288 294 300 306 311 316
234 226 222 221 221 218 215 214 212 213 215 216 212 207 206 209 210 208 209 212 215 214 214 217 218 215 211 209 210 213 214 217 219 220 219 218 218 219 221 222 223 224 223 224 225 227 228 232 238 242 246 250 255 262 269 275 281 287 292 297 303 308 313
237 230 224 221 220 218 215 213 212 211 214 215 211 206 204 206 208 208 207 209 213 215 216 219 222 222 218 214 212 213 215 216 219 220 219 219 219 220 222 223 224 225 224 224 225 228 232 236 242 247 252 256 259 262 268 274 280 286 291 296 301 305 310
235 232 228 225 221 218 215 213 212 212 214 214 212 210 207 204 205 207 206 206 209 214 218 222 225 225 222 219 217 216 216 217 219 219 219 219 220 221 223 224 225 226 225 226 227 230 235 240 245 251 257 263 268 270 273 278 282 287 291 295 299 303 307
233 230 228 226 224 220 216 214 213 213 214 214 213 213 212 208 206 206 206 205 206 212 218 222 225 226 224 221 219 218 217 217 218 219 219 218 220 222 223 224 225 226 227 228 231 235 240 245 250 255 259 265 272 277 281 284 286 290 292 295 298 301 304
234 229 225 224 225 223 219 215 214 215 214 214 214 214 214 212 209 207 207 206 206 209 215 220 223 224 223 222 220 219 217 216 217 218 219 219 220 222 223 225 226 228 229 232 235 239 244 250 255 260 263 266 271 276 282 286 289 292 293 295 297 300 301
237 232 225 222 223 224 222 218 215 216 215 214 215 216 215 213 212 211 211 211 211 210 211 215 219 220 220 220 219 218 218 218 218 219 221 221 222 224 225 227 229 230 232 235 239 242 247 252 258 263 267 269 271 274 278 284 289 292 294 296 297 299 300
236 234 228 222 221 222 223 220 217 216 216 215 216 219 218 215 213 214 214 215 215 213 211 212 215 217 218 218 218 218 218 219 219 220 222 224 225 227 228 230 231 233 235 238 241 246 250 254 258 263 268 271 273 275 278 282 287 291 293 295 297 298 300
233 233 229 223 220 220 222 221 219 217 218 217 217 219 219 218 216 215 216 216 218 217 215 213 213 214 215 217 218 218 218 219 220 221 223 225 227 230 231 232 233 235 237 240 243 248 252 256 259 263 266 271 275 279 281 284 288 291 293 295 297 298 300
232 233 230 225 221 221 222 222 220 219 219 219 219 220 220 219 219 218 217 218 219 220 219 217 214 213 213 215 217 218 219 220 222 223 225 226 229 231 233 234 236 237 240 242 246 250 254 258 262 265 268 272 276 280 284 288 290 292 294 295 296 297 299
232 232 230 226 222 221 221 222 221 220 219 219 220 221 220 220 220 220 220 220 221 222 222 220 217 214 213 214 216 217 219 221 222 225 227 229 231 232 234 236 238 240 243 246 249 252 255 259 263 267 270 273 277 281 284 288 290 291 292 293 294 296 298
230 231 230 226 223 222 221 221 222 221 220 220 221 221 221 221 221 222 223 223 224 225 225 224 222 219 216 215 215 216 218 221 223 225 228 230 233 235 236 238 240 243 246 249 252 254 257 260 263 267 271 275 278 281 283 286 287 288 290 292 294 296 298
229 231 229 225 224 225 223 221 222 223 222 222 222 222 222 222 222 224 225 226 225 226 227 227 226 224 222 219 217 216 217 220 223 226 228 231 234 236 238 241 243 246 249 252 254 256 258 260 263 267 272 275 277 279 281 283 285 287 290 293 295 296 297
229 231 229 224 222 225 225 223 222 222 223 223 223 223 223 222 224 225 227 227 226 226 228 229 229 229 228 225 222 219 218 220 223 226 229 232 234 237 240 243 245 248 250 253 255 257 259 261 265 268 271 273 275 277 280 283 286 289 291 294 295 296 297
228 231 231 226 221 222 223 223 223 223 224 224 224 224 224 223 224 227 229 229 228 228 229 230 231 232 232 231 228 225 222 222 223 226 229 232 235 238 241 244 247 249 252 254 256 258 261 265 267 268 270 272 275 277 280 284 287 290 292 294 295 296 298
227 230 232 229 225 222 222 223 223 223 223 224 224 224 224 225 226 227 229 230 230 230 230 230 231 233 234 234 232 230 227 225 225 227 229 232 235 238 241 244 248 251 253 255 258 261 264 266 267 268 270 272 275 278 281 284 287 290 292 293 294 297 300
226 229 231 231 229 225 223 223 223 222 222 223 224 223 224 225 226 227 228 230 231 232 231 232 233 234 234 235 234 233 230 228 228 228 230 232 236 239 242 245 249 252 254 257 260 262 264 266 268 269 271 273 275 278 282 285 287 289 290 292 295 298 300
226 228 229 231 231 228 226 225 224 223 223 224 224 224 224 226 227 227 229 230 231 233 234 235 235 235 235 234 234 233 232 230 229 230 231 233 236 239 242 246 249 252 254 256 259 260 262 264 267 269 271 273 276 280 283 284 285 287 290 294 296 298 300
226 228 228 229 230 230 229 227 226 225 225 225 226 226 226 227 227 228 230 231 232 233 236 237 237 236 235 235 234 234 233 232 232 232 233 235 237 240 243 246 249 251 253 255 257 259 261 263 266 268 271 275 278 279 281 282 285 288 292 294 296 298 299
226 228 229 228 229 230 231 230 228 227 226 226 227 227 227 227 228 228 229 230 231 232 234 236 236 235 235 235 235 234 235 235 234 235 235 237 239 242 244 247 250 252 254 255 257 259 261 263 265 268 272 274 277 278 280 283 287 290 292 294 296 296 297
225 228 230 230 230 229 229 231 230 228 227 227 227 228 229 229 229 229 229 230 230 232 233 234 233 233 234 235 236 236 236 236 236 236 237 238 240 242 244 246 249 251 254 255 257 259 261 264 266 269 271 273 275 278 282 285 288 291 292 293 293 294 295
225 228 231 232 232 229 227 228 230 229 227 225 225 227 228 229 230 230 230 230 231 232 232 232 232 232 235 236 237 237 237 237 238 238 238 240 241 242 244 246 248 250 253 255 257 260 262 265 267 269 271 274 277 281 284 286 289 290 291 291 291 292 293
224 225 229 232 233 231 228 226 227 229 228 226 224 224 225 227 228 230 230 230 231 231 231 232 232 234 235 236 237 237 237 238 239 240 241 242 243 245 246 248 249 251 254 257 259 262 264 266 268 271 273 276 279 282 284 287 288 288 288 288 289 290 290
223 223 226 231 233 232 230 228 226 227 228 228 226 225 225 226 227 228 230 230 231 231 231 232 233 234 234 235 236 236 237 238 240 241 243 244 246 247 249 250 252 254 256 258 261 263 265 267 269 272 274 276 279 281 284 286 286 286 286 286 286 287 288
222 222 224 229 232 232 231 230 227 225 225 226 226 226 226 227 227 228 230 232 232 233 233 233 234 234 234 234 235 236 237 239 240 243 244 245 247 248 249 251 253 255 257 259 261 263 265 267 270 272 274 277 279 282 284 284 283 282 282 283 284 285 286
221 220 221 225 230 231 231 230 229 226 224 224 225 226 227 227 227 228 230 232 234 234 235 234 234 234 235 235 235 236 237 239 241 243 245 247 248 249 251 252 254 255 257 259 261 263 265 268 270 272 274 277 279 281 281 279 278 277 278 280 281 282 282
222 220 219 221 225 228 230 230 230 229 227 224 224 225 226 227 228 228 230 231 233 234 235 235 235 235 236 236 237 237 238 239 241 243 245 247 248 250 251 253 254 256 257 259 261 263 265 268 270 272 275 276 277 277 274 272 271 272 274 276 277 278 280
224 221 219 219 221 225 228 230 231 233 231 229 226 225 225 226 227 228 229 231 232 233 235 236 237 237 237 238 238 239 240 240 242 243 244 246 248 249 251 252 254 255 257 259 261 263 265 268 270 272 273 273 272 270 268 268 269 271 273 274 275 278 281
225 222 220 219 220 223 227 229 231 234 234 234 232 229 227 226 226 228 228 229 230 232 234 236 237 238 239 240 240 241 242 242 243 244 246 247 248 250 251 252 254 256 258 260 262 264 266 267 268 268 268 266 265 264 265 268 270 271 273 276 278 282 286
226 222 220 219 219 220 224 227 229 232 234 236 236 235 232 230 228 229 229 229 229 230 232 234 236 238 239 240 241 242 244 244 245 246 247 248 250 251 252 254 255 257 259 261 262 263 264 264 263 262 260 260 260 262 265 267 270 272 276 279 283 286 289
227 224 221 220 220 220 221 224 227 229 232 235 237 237 237 235 233 232 231 230 230 230 231 233 234 236 237 239 240 241 243 244 245 246 247 248 250 251 253 254 255 257 259 260 261 261 260 259 258 257 257 258 260 263 265 267 270 274 278 281 284 286 288
228 227 224 223 222 222 222 223 225 227 229 232 235 237 238 238 236 235 234 233 232 231 232 233 234 235 236 237 239 240 241 242 243 244 245 246 248 249 251 252 254 255 256 256 257 256 255 255 255 256 258 260 262 264 266 268 271 274 277 280 282 285 286
227 226 225 224 223 223 223 223 225 227 228 230 231 234 237 238 238 238 238 237 236 235 234 234 235 235 236 237 238 239 239 240 240 242 243 244 246 247 248 249 250 251 252 253 253 253 253 253 254 256 258 260 262 264 266 268 271 274 277 280 282 284 285
227 226 225 224 223 223 223 224 225 227 228 230 231 232 235 237 238 239 240 240 240 239 238 238 237 237 238 238 238 239 239 240 240 241 242 244 245 246 247 248 249 250 251 251 252 252 252 253 254 257 260 262 264 266 268 270 273 276 278 281 282 284 286
Height
10948 10950 10951 10952 10955 10958 10960 10962 10963 10964 10965 10966 10967 10968 10969 10971 10973 10975 10977 10980 10983 10985 10986 10987 10989 10991 10992 10994 10996 10998 11000 11002 11003 11004 11005 11007 11007 11008 11009 11010 11010 11011 11011 11012 11012 11012 11013 11013 11013 11013 11013 11014 11014 11013 11013 11013 11012 11011 11011 11011 11010 11010 11009
10943 10945 10946 10948 10951 10955 10958 10959 10960 10961 10963 10964 10965 10966 10967 10969 10970 10973 10975 10978 10981 10983 10984 10985 10987 10989 10991 10993 10994 10996 10999 11001 11002 11003 11004 11006 11006 11007 11008 11009 11010 11010 11011 11011 11011 11011 11012 11012 11012 11012 11012 11013 11013 11013 11012 11012 11012 11011 11010 11010 11009 11009 11008
10938 10940 10942 10943 10946 10951 10955 10955 10956 10957 10959 10961 10962 10964 10965 10967 10969 10971 10974 10976 10979 10981 10982 10983 10985 10987 10989 10991 10993 10995 10997 10999 11000 11002 11003 11004 11005 11006 11007 11008 11008 11009 11009 11010 11010 11010 11011 11011 11011 11011 11011 11011 11011 11011 11011 11011 11011 11010 11010 11009 11008 11008 11007
10933 10935 10938 10940 10943 10948 10950 10950 10952 10954 10955 10958 10960 10961 10963 10964 10967 10969 10971 10974 10976 10978 10979 10980 10982 10984 10986 10988 10990 10993 10995 10997 10999 11001 11002 11003 11004 11005 11006 11007 11007 11007 11007 11008 11008 11009 11009 11010 11010 11010 11010 11010 11010 11010 11010 11010 11010 11010 11009 11008 11008 11007 11006
10928 10930 10933 10936 10939 10942 10945 10946 10948 10950 10953 10955 10957 10958 10960 10961 10963 10965 10968 10971 10973 10975 10977 10978 10980 10981 10982 10985 10987 10990 10993 10995 10997 10999 11001 11002 11003 11004 11005 11005 11005 11006 11006 11006 11007 11007 11008 11008 11008 11009 11009 11009 11009 11009 11009 11009 11009 11009 11008 11007 11007 11006 11005
10922 10925 10928 10930 10933 10937 10940 10942 10945 10947 10950 10952 10953 10955 10956 10958 10959 10961 10964 10967 10970 10973 10974 10976 10977 10978 10980 10981 10984 10987 10990 10993 10995 10997 10999 11001 11002 11003 11003 11003 11004 11004 11004 11005 11005 11006 11006 11007 11007 11007 11008 11008 11008 11008 11007 11007 11007 11007 11007 11006 11006 11005 11004
10915 10919 10922 10925 10929 10933 10936 10938 10941 10944 10946 10947 10949 10950 10951 10953 10956 10958 10961 10963 10967 10969 10971 10972 10974 10976 10978 10980 10982 10984 10987 10990 10993 10995 10998 10999 11000 11001 11001 11002 11002 11002 11003 11004 11004 11005 11005 11005 11006 11006 11006 11006 11006 11006 11006 11006 11006 11006 11005 11004 11004 11003 11003
10909 10913 10917 10921 10925 10929 10932 10935 10938 10940 10942 10943 10944 10946 10948 10950 10952 10954 10957 10959 10963 10965 10967 10969 10971 10974 10977 10979 10981 10983 10986 10989 10991 10993 10996 10997 10998 10999 10999 11000 11000 11001 11002 11003 11003 11003 11004 11004 11004 11005 11005 11004 11004 11004 11004 11004 11004 11004 11003 11003 11002 11002 11001
10904 10909 10913 10917 10920 10925 10929 10932 10934 10937 10939 10940 10942 10944 10946 10947 10948 10951 10954 10956 10959 10961 10964 10967 10969 10972 10975 10977 10979 10981 10984 10986 10989 10991 10993 10995 10996 10997 10997 10998 10998 10999 11000 11001 11001 11002 11002 11002 11002 11003 11003 11003 11002 11002 11002 11002 11001 11001 11001 11000 11000 11000 10999
10898 10904 10910 10914 10917 10921 10926 10929 10932 10934 10935 10937 10939 10941 10943 10945 10947 10948 10950 10953 10955 10958 10961 10964 10966 10969 10971 10974 10977 10979 10981 10983 10986 10988 10990 10992 10993 10994 10995 10995 10996 10998 10999 10999 11000 11000 11000 11000 11000 11000 11000 11001 11001 11000 11000 10999 10999 10999 10998 10998 10998 10997 10997
10894 10900 10907 10911 10914 10917 10922 10925 10928 10930 10932 10934 10937 10939 10941 10942 10944 10946 10947 10950 10953 10955 10957 10960 10962 10965 10968 10971 10973 10975 10978 10980 10983 10985 10987 10990 10991 10992 10993 10993 10995 10996 10997 10997 10997 10998 10998 10998 10998 10998 10997 10998 10998 10998 10998 10997 10997 10996 10996 10995 10995 10995 10995
10890 10895 10902 10907 10910 10913 10917 10920 10924 10927 10929 10931 10933 10936 10938 10939 10941 10942 10945 10948 10950 10952 10954 10956 10958 10961 10964 10967 10969 10971 10974 10977 10979 10982 10985 10987 10988 10989 10990 10992 10993 10994 10994 10995 10995 10995 10995 10996 10996 10996 10995 10995 10995 10995 10995 10995 10994 10994 10993 10993 10993 10993 10992
10887 10890 10897 10902 10906 10909 10912 10916 10921 10924 10925 10927 10930 10932 10934 10936 10937 10939 10942 10945 10947 10949 10951 10953 10955 10957 10960 10962 10965 10968 10970 10973 10976 10979 10982 10984 10985 10986 10988 10989 10990 10991 10992 10992 10992 10992 10992 10992 10993 10993 10993 10992 10991 10991 10991 10992 10992 10991 10991 10991 10990 10990 10990
10883 10887 10892 10898 10902 10906 10909 10913 10917 10919 10921 10923 10926 10928 10930 10932 10934 10937 10939 10941 10943 10945 10948 10950 10952 10954 10956 10958 10961 10964 10967 10970 10973 10976 10978 10980 10981 10983 10984 10986 10987 10988 10988 10989 10989 10990 10990 10989 10990 10990 10990 10990 10989 10988 10988 10988 10988 10989 10988 10988 10988 10987 10987
10879 10883 10887 10894 10899 10902 10904 10908 10911 10913 10916 10919 10922 10925 10928 10929 10931 10934 10936 10938 10940 10942 10944 10947 10949 10951 10952 10954 10957 10960 10964 10967 10970 10972 10975 10976 10977 10979 10981 10982 10984 10984 10985 10986 10987 10987 10987 10987 10987 10987 10987 10987 10986 10986 10986 10986 10985 10985 10985 10985 10985 10985 10984
10875 10878 10883 10890 10895 10896 10899 10903 10906 10909 10913 10916 10919 10922 10925 10926 10928 10931 10934 10936 10938 10939 10941 10943 10945 10947 10949 10950 10953 10956 10960 10963 10966 10968 10971 10972 10974 10976 10977 10979 10980 10981 10982 10983 10984 10984 10984 10985 10985 10985 10985 10984 10984 10984 10984 10984 10983 10982 10982 10982 10982 10982 10981
10871 10873 10878 10886 10890 10891 10895 10899 10903 10906 10910 10912 10915 10918 10922 10924 10926 10929 10931 10932 10934 10937 10939 10941 10942 10944 10946 10948 10951 10953 10956 10959 10962 10964 10967 10969 10971 10972 10974 10976 10977 10978 10979 10980 10980 10981 10981 10982 10983 10983 10982 10982 10981 10981 10981 10981 10980 10980 10980 10979 10979 10979 10978
10867 10868 10874 10881 10886 10887 10890 10895 10899 10902 10905 10908 10912 10915 10918 10920 10923 10925 10927 10929 10931 10934 10936 10938 10940 10942 10944 10946 10949 10950 10952 10955 10958 10960 10963 10965 10967 10969 10971 10972 10974 10975 10977 10978 10978 10978 10978 10979 10981 10981 10980 10979 10979 10978 10978 10978 10978 10978 10977 10976 10976 10975 10975
10863 10864 10869 10876 10881 10883 10886 10890 10893 10897 10900 10904 10908 10910 10913 10916 10918 10920 10923 10926 10929 10931 10933 10935 10937 10939 10942 10944 10946 10948 10950 10952 10955 10957 10959 10962 10964 10966 10967 10968 10970 10972 10974 10975 10975 10975 10975 10976 10977 10977 10977 10977 10976 10975 10976 10976 10975 10975 10974 10973 10972 10971 10971
10860 10862 10864 10870 10876 10880 10883 10885 10888 10892 10896 10898 10902 10905 10909 10911 10914 10917 10921 10924 10926 10927 10930 10933 10935 10937 10939 10941 10943 10945 10948 10950 10952 10954 10956 10959 10961 10963 10964 10965 10967 10969 10971 10972 10972 10972 10972 10972 10973 10973 10974 10974 10973 10972 10973 10973 10973 10972 10971 10970 10969 10968 10967
10858 10859 10862 10866 10871 10875 10879 10881 10884 10887 10890 10892 10896 10901 10904 10906 10909 10914 10917 10920 10922 10924 10927 10930 10932 10935 10937 10939 10941 10942 10944 10947 10949 10951 10954 10956 10958 10959 10960 10962 10964 10966 10967 10968 10968 10969 10969 10968 10968 10969 10969 10970 10969 10969 10969 10969 10969 10969 10968 10967 10966 10964 10963
10855 10857 10859 10863 10866 10870 10874 10877 10880 10883 10886 10888 10892 10896 10899 10902 10906 10911 10913 10916 10919 10921 10924 10927 10930 10932 10934 10936 10938 10939 10941 10944 10946 10948 10951 10953 10954 10955 10956 10958 10960 10962 10963 10964 10964 10964 10965 10964 10964 10964 10964 10965 10966 10966 10966 10966 10966 10965 10965 10964 10962 10960 10958
10853 10854 10857 10860 10863 10866 10869 10872 10875 10879 10882 10885 10888 10891 10895 10899 10903 10907 10910 10913 10916 10918 10921 10924 10927 10929 10931 10933 10935 10937 10939 10941 10943 10946 10948 10949 10950 10951 10953 10955 10956 10957 10958 10959 10959 10960 10960 10961 10961 10960 10960 10961 10962 10962 10962 10962 10962 10962 10962 10961 10959 10956 10954
10850 10851 10854 10858 10860 10862 10864 10867 10871 10874 10877 10880 10883 10886 10890 10895 10900 10903 10906 10909 10912 10915 10918 10920 10923 10926 10928 10930 10932 10934 10936 10938 10940 10942 10944 10945 10946 10947 10949 10951 10952 10952 10953 10954 10955 10955 10956 10956 10957 10956 10957 10957 10958 10958 10958 10959 10959 10958 10958 10957 10955 10952 10950
10847 10848 10851 10853 10856 10859 10861 10863 10866 10870 10873 10876 10879 10882 10886 10891 10895 10899 10902 10905 10909 10912 10915 10917 10919 10922 10924 10926 10928 10931 10933 10935 10937 10938 10940 10941 10942 10944 10945 10947 10947 10948 10948 10949 10950 10951 10951 10952 10952 10952 10953 10953 10954 10954 10954 10955 10954 10954 10953 10952 10950 10948 10946
10844 10846 10847 10849 10851 10855 10858 10859 10862 10864 10868 10872 10875 10878 10882 10886 10890 10894 10898 10902 10905 10908 10910 10912 10915 10918 10920 10923 10925 10927 10929 10931 10932 10934 10935 10936 10937 10939 10941 10942 10943 10944 10944 10944 10945 10946 10947 10947 10947 10948 10949 10949 10949 10950 10950 10950 10950 10948 10947 10946 10945 10944 10943
10841 10842 10843 10844 10846 10850 10854 10856 10858 10860 10863 10867 10870 10873 10877 10881 10885 10889 10893 10897 10900 10902 10904 10907 10911 10913 10916 10918 10920 10922 10924 10926 10927 10929 10930 10931 10933 10934 10936 10937 10938 10939 10939 10939 10940 10941 10942 10942 10943 10943 10944 10945 10945 10945 10945 10945 10944 10943 10941 10940 10940 10939 10939
10836 10838 10839 10839 10842 10845 10849 10851 10854 10856 10858 10861 10864 10868 10871 10875 10879 10883 10887 10890 10892 10894 10899 10903 10906 10908 10911 10913 10915 10917 10919 10921 10922 10924 10925 10927 10928 10929 10931 10932 10933 10933 10934 10935 10935 10936 10937 10938 10938 10939 10940 10940 10940 10940 10940 10940 10938 10936 10935 10935 10935 10935 10934
10831 10833 10835 10835 10836 10839 10842 10845 10848 10851 10854 10856 10859 10862 10865 10869 10873 10877 10880 10882 10884 10889 10894 10898 10900 10902 10904 10907 10909 10911 10913 10916 10918 10919 10921 10922 10923 10925 10926 10927 10928 10928 10929 10930 10931 10931 10932 10933 10934 10934 10935 10935 10935 10935 10935 10934 10932 10930 10930 10930 10931 10930 10930
10825 10828 10830 10830 10831 10834 10836 10839 10843 10846 10849 10853 10855 10857 10860 10864 10867 10870 10873 10875 10879 10884 10887 10890 10893 10896 10898 10900 10903 10906 10908 10911 10913 10914 10915 10917 10918 10920 10921 10922 10923 10923 10924 10925 10926 10926 10927 10928 10929 10929 10930 10930 10931 10930 10929 10927 10926 10925 10926 10926 10926 10926 10926
10819 10822 10824 10826 10827 10829 10832 10835 10838 10842 10845 10849 10851 10854 10856 10859 10862 10864 10867 10870 10874 10877 10880 10883 10887 10889 10892 10894 10897 10900 10902 10905 10907 10909 10910 10911 10913 10914 10915 10916 10917 10917 10918 10919 10920 10921 10922 10923 10924 10924 10925 10925 10925 10925 10923 10921 10921 10922 10922 10922 10922 10922 10921
10811 10815 10818 10821 10824 10826 10828 10831 10835 10838 10841 10844 10847 10850 10852 10854 10857 10859 10861 10865 10868 10871 10873 10877 10880 10883 10885 10888 10891 10893 10896 10898 10901 10902 10903 10905 10906 10907 10909 10910 10910 10911 10912 10913 10915 10916 10917 10918 10919 10919 10919 10919 10919 10918 10917 10916 10916 10917 10917 10917 10917 10917 10917
10802 10808 10813 10817 10821 10823 10825 10828 10831 10834 10837 10839 10842 10845 10847 10850 10852 10854 10856 10860 10863 10865 10868 10871 10874 10876 10879 10882 10884 10887 10889 10892 10894 10896 10897 10898 10899 10900 10902 10903 10903 10904 10906 10907 10909 10910 10911 10912 10913 10913 10913 10914 10913 10912 10911 10911 10911 10911 10911 10912 10912 10911 10911
10793 10802 10808 10813 10817 10819 10822 10824 10827 10830 10833 10836 10838 10841 10843 10845 10848 10849 10852 10854 10857 10860 10863 10865 10868 10870 10873 10875 10878 10880 10882 10885 10887 10889 10890 10891 10892 10893 10895 10896 10897 10898 10899 10901 10903 10904 10905 10906 10906 10907 10907 10908 10908 10907 10907 10907 10906 10906 10906 10906 10906 10905 10905
10786 10796 10803 10807 10811 10814 10817 10820 10823 10826 10829 10832 10834 10836 10839 10841 10843 10845 10847 10849 10852 10855 10857 10860 10862 10864 10867 10869 10872 10874 10876 10878 10880 10882 10883 10884 10885 10887 10888 10889 10890 10892 10893 10895 10896 10898 10899 10899 10900 10901 10901 10902 10902 10903 10903 10902 10902 10901 10901 10901 10900 10900 10900
10781 10789 10796 10801 10805 10809 10812 10816 10819 10822 10825 10828 10830 10832 10834 10836 10839 10841 10843 10845 10847 10850 10852 10854 10856 10859 10861 10863 10865 10867 10870 10872 10873 10874 10876 10877 10879 10881 10882 10883 10884 10886 10887 10889 10891 10892 10893 10894 10894 10895 10896 10897 10897 10898 10898 10898 10897 10897 10896 10896 10895 10895 10895
10775 10782 10788 10794 10799 10803 10807 10811 10814 10817 10820 10823 10826 10828 10830 10832 10834 10836 10839 10841 10843 10846 10848 10849 10851 10853 10855 10857 10860 10862 10864 10866 10867 10868 10869 10871 10873 10875 10877 10878 10879 10880 10882 10884 10885 10887 10887 10888 10889 10890 10890 10891 10892 10892 10892 10892 10892 10892 10891 10891 10890 10890 10889
10768 10776 10782 10788 10793 10797 10802 10806 10809 10812 10815 10818 10821 10824 10825 10827 10830 10832 10835 10837 10840 10842 10844 10845 10847 10849 10851 10853 10855 10857 10858 10860 10861 10863 10864 10866 10868 10869 10871 10872 10874 10875 10877 10878 10880 10881 10882 10883 10884 10884 10885 10885 10886 10886 10886 10886 10886 10886 10886 10885 10884 10884 10883